Location: Newark
(29.4733°N, 82.6067°W)
Time: 08:54:23
(UTC+00:00)

Nauka - Pass Details

Date: 20 September 2021
Orbit: 417 x 423 km, 51.6° (Epoch: 17 October)

Event Time Altitude Azimuth Distance (km) Brightness Sun altitude
Rises 00:05:59 0° 263° (W) 2,349 ? -8.6°
Reaches altitude 10° 00:08:51 10° 290° (WNW) 1,489 ? -9.2°
Maximum altitude 00:10:42 14° 324° (NW) 1,273 ? -9.6°
Drops below altitude 10° 00:12:33 10° 358° (N) 1,494 ? -10.0°
Enters shadow 00:16:54 -4° 32° (NNE) 2,888 ? -11.0°
